| time (UTC) | temp C | wind direction | speed KPH | gust KPH | rain 1hr cm | rain 24hr cm | rain mn cm | humidity % | barometer mb |
| 20260506151012 | -17 | 224 | 1.6 | 4.8 | 0.30 | 1.17 | 1.17 | 1004.6 | |
| 20260506150508 | -17 | 185 | 9.7 | 11.3 | 0.13 | 1.14 | 1.14 | 1004.2 | |
| 20260506150005 | -17 | 194 | 6.4 | 9.7 | 0.18 | 1.12 | 1.12 | 1004.2 | |
| 20260506145501 | -17 | 215 | 1.6 | 6.4 | 0.13 | 1.09 | 1.09 | 1004.2 | |
| 20260506144959 | -17 | 217 | 1.6 | 6.4 | 0.30 | 1.09 | 1.09 | 1004.2 | |
| 20260506144455 | -17 | 196 | 6.4 | 9.7 | 0.30 | 1.07 | 1.07 | 1004.1 | |
| 20260506143953 | -17 | 173 | 6.4 | 6.4 | 0.30 | 1.04 | 1.04 | 1004.5 | |
| 20260506143450 | -17 | 211 | 0.0 | 4.8 | 0.13 | 0.99 | 0.99 | 1004.2 | |
| 20260506142949 | -17 | 212 | 0.0 | 6.4 | 0.13 | 0.99 | 0.99 | 1004.3 | |
| 20260506142446 | -17 | 217 | 3.2 | 6.4 | 0.18 | 0.97 | 0.97 | 1004.3 | |
| 20260506141944 | -17 | 214 | 3.2 | 9.7 | 0.18 | 0.97 | 0.97 | 1004.5 | |
| 20260506141442 | -17 | 219 | 0.0 | 3.2 | 0.00 | 0.94 | 0.94 | 1004.5 | |
| 20260506140940 | -17 | 215 | 1.6 | 4.8 | 0.00 | 0.94 | 0.94 | 1004.1 | |
| 20260506140436 | -17 | 212 | 1.6 | 3.2 | 0.00 | 0.94 | 0.94 | 1004.0 | |
| 20260506135933 | -17 | 222 | 1.6 | 4.8 | 0.13 | 0.94 | 0.94 | 1004.2 | |
| 20260506135431 | -17 | 205 | 3.2 | 3.2 | 0.00 | 0.91 | 0.91 | 1004.0 | |
| 20260506134927 | -17 | 197 | 1.6 | 3.2 | 0.18 | 0.91 | 0.91 | 1004.3 | |
| 20260506134423 | -17 | 215 | 0.0 | 1.6 | 0.36 | 0.91 | 0.91 | 1004.3 | |
| 20260506133920 | -17 | 211 | 0.0 | 3.2 | 0.48 | 0.89 | 0.89 | 1004.6 | |
| 20260506133417 | -17 | 205 | 1.6 | 1.6 | 0.30 | 0.86 | 0.86 | 1004.9 | |
| 20260506132913 | -17 | 216 | 1.6 | 4.8 | 0.13 | 0.81 | 0.81 | 1005.0 | |
| 20260506132411 | -17 | 203 | 3.2 | 3.2 | 0.18 | 0.79 | 0.79 | 1005.0 | |
| 20260506131908 | -17 | 215 | 1.6 | 4.8 | 0.13 | 0.76 | 0.76 | 1005.1 | |
| 20260506131404 | -17 | 204 | 0.0 | 3.2 | 0.43 | 0.76 | 0.76 | 1005.3 | |
| 20260506130902 | -17 | 212 | 0.0 | 0.0 | 0.43 | 0.71 | 0.71 | 1005.5 | |
| 20260506130358 | -17 | 212 | 0.0 | 0.0 | 0.48 | 0.69 | 0.69 | 1005.4 | |
| 20260506125856 | -17 | 209 | 1.6 | 1.6 | 0.36 | 0.64 | 0.64 | 1005.4 | |
| 20260506125354 | -17 | 205 | 3.2 | 3.2 | 0.48 | 0.61 | 0.61 | 1005.5 | |
| 20260506124852 | -17 | 202 | 0.0 | 1.6 | 0.48 | 0.56 | 0.56 | 1005.3 | |
| 20260506124349 | -17 | 210 | 0.0 | 0.0 | 0.30 | 0.51 | 0.51 | 1005.3 | |
| 20260506123847 | -17 | 210 | 0.0 | 0.0 | 0.30 | 0.48 | 0.48 | 1005.2 | |
| 20260506123345 | -17 | 210 | 0.0 | 0.0 | 0.30 | 0.46 | 0.46 | 1004.9 | |
| 20260506122842 | -17 | 210 | 0.0 | 0.0 | 0.30 | 0.43 | 0.43 | 1005.0 | |
| 20260506122338 | -17 | 210 | 0.0 | 0.0 | 0.30 | 0.41 | 0.41 | 1005.1 | |
| 20260506121837 | -17 | 210 | 0.0 | 1.6 | 0.30 | 0.38 | 0.38 | 1004.9 | |
| 20260506121333 | -17 | 210 | 0.0 | 0.0 | 0.18 | 0.36 | 0.36 | 1005.0 | |
| 20260506120831 | -17 | 210 | 0.0 | 0.0 | 0.13 | 0.33 | 0.33 | 1005.1 | |
| 20260506120329 | -17 | 210 | 0.0 | 0.0 | 0.18 | 0.30 | 0.30 | 1005.0 | |
| 20260506115826 | -17 | 212 | 1.6 | 3.2 | 0.18 | 0.30 | 0.30 | 1005.2 | |
| 20260506115324 | -17 | 205 | 0.0 | 0.0 | 0.00 | 0.28 | 0.28 | 1005.1 | |
| 20260506114821 | -17 | 205 | 0.0 | 0.0 | 0.18 | 0.28 | 0.28 | 1005.1 | |
| 20260506114319 | -17 | 205 | 0.0 | 1.6 | 0.30 | 0.28 | 0.28 | 1005.1 | |
| 20260506113817 | -17 | 205 | 0.0 | 3.2 | 0.13 | 0.25 | 0.25 | 1005.2 | |
| 20260506113315 | -17 | 205 | 0.0 | 0.0 | 0.00 | 0.23 | 0.23 | 1005.1 | |
| 20260506112811 | -17 | 205 | 0.0 | 1.6 | 0.18 | 0.23 | 0.23 | 1005.1 | |
| 20260506112309 | -17 | 204 | 3.2 | 3.2 | 0.18 | 0.23 | 0.23 | 1005.1 | |
| 20260506111806 | -17 | 204 | 0.0 | 3.2 | 0.00 | 0.20 | 0.20 | 1005.2 | |
| 20260506111304 | -17 | 210 | 3.2 | 3.2 | 0.00 | 0.20 | 0.20 | 1004.9 | |
| 20260506110801 | -17 | 209 | 1.6 | 4.8 | 0.00 | 0.20 | 0.20 | 1005.0 | |
| 20260506110258 | -17 | 205 | 0.0 | 1.6 | 0.13 | 0.20 | 0.20 | 1005.1 | |
| 20260506105754 | -17 | 188 | 1.6 | 3.2 | 0.00 | 0.18 | 0.18 | 1005.2 | |
| 20260506105251 | -17 | 205 | 0.0 | 1.6 | 0.18 | 0.18 | 0.18 | 1005.3 | |
| 20260506104749 | -17 | 205 | 0.0 | 1.6 | 0.30 | 0.18 | 0.18 | 1005.4 | |
| 20260506104246 | -17 | 207 | 0.0 | 0.0 | 0.30 | 0.15 | 0.15 | 1005.3 | |
| 20260506103744 | -17 | 207 | 0.0 | 0.0 | 0.30 | 0.13 | 0.13 | 1005.2 | |
| 20260506103241 | -17 | 211 | 0.0 | 1.6 | 0.13 | 0.10 | 0.10 | 1005.1 | |
| 20260506102738 | -17 | 212 | 0.0 | 0.0 | 0.00 | 0.08 | 0.08 | 1005.1 | |
| 20260506102236 | -17 | 207 | 0.0 | 3.2 | 0.18 | 0.08 | 0.08 | 1005.0 | |
| 20260506101733 | -17 | 210 | 1.6 | 1.6 | 0.18 | 0.08 | 0.08 | 1005.0 | |
| 20260506101229 | -17 | 207 | 0.0 | 1.6 | 0.00 | 0.05 | 0.05 | 1005.0 | |
| 20260506100728 | -17 | 206 | 1.6 | 1.6 | 0.00 | 0.05 | 0.05 | 1004.8 | |
| 20260506100225 | -17 | 208 | 1.6 | 3.2 | 0.13 | 0.05 | 0.05 | 1005.0 | |
| 20260506095724 | -17 | 201 | 1.6 | 3.2 | 0.00 | 0.03 | 0.03 | 1005.0 | |
| 20260506095220 | -17 | 201 | 1.6 | 1.6 | 0.18 | 0.03 | 0.03 | 1004.8 | |
| 20260506094717 | -17 | 205 | 1.6 | 1.6 | 0.18 | 0.03 | 0.03 | 1004.8 | |
| 20260506094215 | -17 | 206 | 3.2 | 3.2 | 0.00 | 0.00 | 0.00 | 1004.7 | |
| 20260506093714 | -17 | 207 | 1.6 | 3.2 | 0.00 | 0.00 | 0.00 | 1005.0 | |
| 20260506093210 | -17 | 201 | 3.2 | 4.8 | 0.00 | 0.00 | 0.00 | 1004.6 | |
| 20260506092708 | -17 | 207 | 3.2 | 3.2 | 0.00 | 0.00 | 0.00 | 1004.6 | |
| 20260506092205 | -17 | 207 | 3.2 | 3.2 | 0.00 | 0.00 | 0.00 | 1004.7 | |
| 20260506091703 | -17 | 206 | 1.6 | 3.2 | 0.00 | 0.00 | 0.00 | 1004.6 | |
| 20260506091200 | -17 | 211 | 3.2 | 3.2 | 0.00 | 0.00 | 0.00 | 1004.5 | |
| 20260506090658 | -17 | 207 | 1.6 | 1.6 | 0.00 | 0.00 | 0.00 | 1004.5 | |
| 20260506090154 | -17 | 207 | 0.0 | 0.0 | 0.00 | 0.00 | 0.00 | 1004.7 | |
| 20260506085651 | -17 | 207 | 1.6 | 3.2 | 0.00 | 0.00 | 0.00 | 1004.7 | |
| 20260506085147 | -17 | 207 | 1.6 | 3.2 | 0.00 | 0.00 | 0.00 | 1005.0 | |
| 20260506084644 | -17 | 207 | 1.6 | 1.6 | 0.00 | 0.00 | 0.00 | 1005.0 | |
| 20260506084141 | -17 | 207 | 3.2 | 3.2 | 0.00 | 0.00 | 0.00 | 1005.1 | |
| 20260506083638 | -17 | 207 | 0.0 | 3.2 | 0.00 | 0.00 | 0.00 | 1005.2 | |
| 20260506083136 | -17 | 207 | 1.6 | 3.2 | 0.00 | 0.00 | 0.00 | 1005.2 | |
| 20260506082632 | -17 | 207 | 0.0 | 0.0 | 0.00 | 0.00 | 0.00 | 1005.0 | |
| 20260506082128 | -17 | 207 | 0.0 | 0.0 | 0.00 | 0.00 | 0.00 | 1005.0 | |
| 20260506081626 | -17 | 207 | 0.0 | 0.0 | 0.00 | 0.00 | 0.00 | 1004.6 | |
| 20260506081124 | -17 | 207 | 0.0 | 0.0 | 0.00 | 0.00 | 0.00 | 1004.8 | |
| 20260506080621 | -17 | 207 | 0.0 | 0.0 | 0.00 | 0.00 | 0.00 | 1004.6 | |
| 20260506080117 | -17 | 208 | 0.0 | 0.0 | 0.00 | 0.00 | 0.00 | 1004.8 | |
| 20260506073101 | -17 | 191 | 3.2 | 9.7 | 0.00 | 0.00 | 0.00 | 1004.8 | |
| 20260506072558 | -17 | 197 | 1.6 | 6.4 | 0.00 | 0.00 | 0.00 | 1004.9 | |
| 20260506072056 | -17 | 200 | 3.2 | 3.2 | 0.00 | 0.00 | 0.00 | 1004.9 | |
| 20260506071553 | -17 | 205 | 0.0 | 3.2 | 0.00 | 0.00 | 0.00 | 1004.8 | |
| 20260506071051 | -17 | 196 | 3.2 | 4.8 | 0.00 | 0.00 | 0.00 | 1005.0 | |
| 20260506070548 | -17 | 203 | 1.6 | 3.2 | 0.00 | 0.00 | 0.00 | 1004.8 | |
| 20260506062022 | -17 | 209 | 0.0 | 1.6 | 0.00 | 0.00 | 0.00 | 1005.3 | |
| 20260506061518 | -17 | 211 | 0.0 | 0.0 | 0.00 | 0.00 | 0.00 | 1005.5 | |
| 20260506061016 | -17 | 211 | 0.0 | 0.0 | 0.00 | 0.00 | 0.00 | 1005.5 | |
| 20260506060514 | -17 | 213 | 0.0 | 0.0 | 0.00 | 0.00 | 0.00 | 1005.6 | |
| 20260506050943 | -17 | 208 | 0.0 | 0.0 | 0.00 | 0.00 | 0.00 | 1006.2 | |
| 20260506050441 | -17 | 208 | 0.0 | 0.0 | 0.00 | 0.00 | 0.00 | 1006.3 | |
| 20260506044931 | -17 | 210 | 0.0 | 0.0 | 0.00 | 0.00 | 0.00 | 1006.2 | |
| 20260506044429 | -17 | 211 | 0.0 | 0.0 | 0.00 | 0.00 | 0.00 | 1006.3 | |
| 20260506043925 | -17 | 209 | 0.0 | 3.2 | 0.00 | 0.00 | 0.00 | 1006.3 | |
| 20260506043423 | -17 | 197 | 0.0 | 0.0 | 0.00 | 0.00 | 0.00 | 1006.3 | |
| 20260506042920 | -17 | 212 | 0.0 | 0.0 | 0.00 | 0.00 | 0.00 | 1006.4 | |
| 20260506042420 | -17 | 210 | 0.0 | 3.2 | 0.00 | 0.00 | 0.00 | 1006.3 | |
| 20260506041918 | -17 | 202 | 4.8 | 9.7 | 0.00 | 0.00 | 0.00 | 1006.4 | |
| 20260506041415 | -17 | 207 | 0.0 | 0.0 | 0.00 | 0.00 | 0.00 | 1006.7 | |
| 20260506040912 | -17 | 203 | 3.2 | 3.2 | 0.00 | 0.00 | 0.00 | 1006.6 | |
| 20260506040409 | -17 | 214 | 0.0 | 1.6 | 0.00 | 0.00 | 0.00 | 1006.8 | |
| 20260506035905 | -17 | 208 | 1.6 | 4.8 | 0.00 | 0.13 | 0.13 | 1006.7 | |
| 20260506035403 | -17 | 208 | 3.2 | 3.2 | 0.00 | 0.13 | 0.13 | 1006.6 | |
| 20260506034859 | -17 | 190 | 4.8 | 6.4 | 0.00 | 0.13 | 0.13 | 1006.8 | |
| 20260506034358 | -17 | 206 | 1.6 | 3.2 | 0.00 | 0.13 | 0.13 | 1006.8 | |
| 20260506033854 | -17 | 193 | 1.6 | 3.2 | 0.00 | 0.13 | 0.13 | 1006.7 | |
| 20260506033351 | -17 | 216 | 0.0 | 0.0 | 0.00 | 0.13 | 0.13 | 1006.6 | |
| 20260506032848 | -17 | 216 | 0.0 | 3.2 | 0.00 | 0.13 | 0.13 | 1006.6 | |
| 20260506032344 | -17 | 215 | 0.0 | 4.8 | 0.00 | 0.13 | 0.13 | 1006.7 | |
| 20260506031841 | -17 | 218 | 3.2 | 3.2 | 0.00 | 0.13 | 0.13 | 1006.5 | |
| 20260506031339 | -17 | 207 | 0.0 | 1.6 | 0.00 | 0.13 | 0.13 | 1006.6 | |
| 20260506030836 | -17 | 215 | 1.6 | 4.8 | 0.00 | 0.13 | 0.13 | 1006.6 | |
| 20260506030334 | -17 | 222 | 4.8 | 6.4 | 0.00 | 0.13 | 0.13 | 1006.6 | |
| 20260506025831 | -17 | 204 | 3.2 | 3.2 | 0.00 | 0.13 | 0.13 | 1006.3 | |
| 20260506025327 | -17 | 210 | 4.8 | 4.8 | 0.00 | 0.13 | 0.13 | 1006.5 | |
| 20260506024824 | -17 | 212 | 0.0 | 0.0 | 0.00 | 0.13 | 0.13 | 1006.4 | |
| 20260506024321 | -17 | 205 | 1.6 | 3.2 | 0.00 | 0.13 | 0.13 | 1006.6 | |
| 20260506023817 | -17 | 205 | 0.0 | 0.0 | 0.00 | 0.13 | 0.13 | 1006.6 | |
| 20260506023314 | -17 | 205 | 0.0 | 1.6 | 0.00 | 0.13 | 0.13 | 1006.4 | |
| 20260506022811 | -17 | 209 | 0.0 | 0.0 | 0.00 | 0.13 | 0.13 | 1006.2 | |
| 20260506022309 | -17 | 208 | 0.0 | 1.6 | 0.00 | 0.13 | 0.13 | 1006.4 | |
| 20260506021807 | -17 | 209 | 1.6 | 1.6 | 0.00 | 0.13 | 0.13 | 1006.3 | |
| 20260506021303 | -17 | 209 | 0.0 | 0.0 | 0.00 | 0.13 | 0.13 | 1006.2 | |
| 20260506020800 | -17 | 209 | 0.0 | 0.0 | 0.00 | 0.13 | 0.13 | 1006.4 | |
| 20260506020258 | -17 | 209 | 0.0 | 0.0 | 0.00 | 0.13 | 0.13 | 1006.1 | |
| 20260506015755 | -17 | 209 | 0.0 | 0.0 | 0.00 | 0.13 | 0.13 | 1006.1 | |
| 20260506015252 | -17 | 209 | 0.0 | 0.0 | 0.00 | 0.13 | 0.13 | 1006.2 | |
| 20260506014749 | -17 | 209 | 0.0 | 0.0 | 0.00 | 0.13 | 0.13 | 1006.1 | |
| 20260506014246 | -17 | 209 | 0.0 | 1.6 | 0.00 | 0.13 | 0.13 | 1006.1 | |
| 20260506013743 | -17 | 209 | 1.6 | 3.2 | 0.00 | 0.13 | 0.13 | 1006.2 | |
| 20260506013240 | -17 | 209 | 1.6 | 3.2 | 0.00 | 0.13 | 0.13 | 1006.2 | |
| 20260506012736 | -17 | 209 | 1.6 | 1.6 | 0.00 | 0.13 | 0.13 | 1005.9 | |
| 20260506012233 | -17 | 209 | 0.0 | 0.0 | 0.00 | 0.13 | 0.13 | 1005.9 | |
| 20260506011731 | -17 | 209 | 0.0 | 1.6 | 0.00 | 0.13 | 0.13 | 1005.9 | |
| 20260506011227 | -17 | 208 | 1.6 | 1.6 | 0.00 | 0.13 | 0.13 | 1005.8 | |
| 20260506010725 | -17 | 208 | 1.6 | 3.2 | 0.00 | 0.13 | 0.13 | 1005.7 | |
| 20260506010222 | -17 | 208 | 0.0 | 1.6 | 0.00 | 0.13 | 0.13 | 1005.7 | |
| 20260506005720 | -17 | 208 | 1.6 | 3.2 | 0.00 | 0.13 | 0.13 | 1005.8 | |
| 20260506005216 | -17 | 208 | 1.6 | 3.2 | 0.00 | 0.13 | 0.13 | 1005.8 | |
| 20260506004712 | -17 | 209 | 0.0 | 0.0 | 0.00 | 0.13 | 0.13 | 1005.7 | |
| 20260506004210 | -17 | 209 | 0.0 | 0.0 | 0.00 | 0.13 | 0.13 | 1005.7 | |
| 20260506003706 | -17 | 208 | 0.0 | 3.2 | 0.00 | 0.13 | 0.13 | 1005.8 | |
| 20260506003202 | -17 | 207 | 1.6 | 3.2 | 0.00 | 0.13 | 0.13 | 1005.7 | |
| 20260506002658 | -17 | 202 | 1.6 | 4.8 | 0.00 | 0.13 | 0.13 | 1005.7 | |
| 20260506002154 | -17 | 216 | 3.2 | 3.2 | 0.00 | 0.13 | 0.13 | 1005.5 | |
| 20260506001650 | -17 | 217 | 0.0 | 0.0 | 0.00 | 0.13 | 0.13 | 1005.5 | |
| 20260506001148 | -17 | 217 | 0.0 | 0.0 | 0.00 | 0.13 | 0.13 | 1005.7 | |
| 20260506000645 | -17 | 216 | 1.6 | 3.2 | 0.00 | 0.13 | 0.13 | 1005.7 | |
| 20260506000142 | -17 | 216 | 0.0 | 3.2 | 0.00 | 0.13 | 0.13 | 1005.7 | |
| 20260505235640 | -17 | 216 | 1.6 | 3.2 | 0.00 | 0.13 | 0.13 | 1005.7 | |
| 20260505235137 | -17 | 216 | 3.2 | 3.2 | 0.00 | 0.13 | 0.13 | 1005.7 | |
| 20260505234634 | -17 | 217 | 3.2 | 3.2 | 0.00 | 0.13 | 0.13 | 1005.6 | |
| 20260505234130 | -17 | 217 | 1.6 | 3.2 | 0.00 | 0.13 | 0.13 | 1005.5 | |
| 20260505233628 | -17 | 217 | 1.6 | 3.2 | 0.00 | 0.13 | 0.13 | 1005.3 | |
| 20260505233125 | -17 | 218 | 0.0 | 0.0 | 0.00 | 0.13 | 0.13 | 1005.6 | |
| 20260505232623 | -17 | 218 | 0.0 | 0.0 | 0.00 | 0.13 | 0.13 | 1005.6 | |
| 20260505232120 | -17 | 218 | 0.0 | 0.0 | 0.00 | 0.13 | 0.13 | 1005.5 | |
| 20260505231617 | -17 | 218 | 0.0 | 1.6 | 0.00 | 0.13 | 0.13 | 1005.4 | |
| 20260505231116 | -17 | 218 | 0.0 | 0.0 | 0.00 | 0.13 | 0.13 | 1005.3 | |
| 20260505230613 | -17 | 218 | 0.0 | 0.0 | 0.00 | 0.13 | 0.13 | 1005.4 | |
| 20260505230109 | -17 | 218 | 0.0 | 0.0 | 0.00 | 0.13 | 0.13 | 1005.4 | |
| 20260505225606 | -17 | 218 | 0.0 | 0.0 | 0.00 | 0.13 | 0.13 | 1005.6 | |
| 20260505225102 | -17 | 218 | 0.0 | 1.6 | 0.00 | 0.13 | 0.13 | 1005.2 | |
| 20260505224559 | -17 | 218 | 1.6 | 3.2 | 0.00 | 0.13 | 0.13 | 1005.3 | |
| 20260505224056 | -17 | 218 | 3.2 | 4.8 | 0.00 | 0.13 | 0.13 | 1005.3 | |
| 20260505223554 | -17 | 217 | 1.6 | 3.2 | 0.00 | 0.13 | 0.13 | 1005.2 | |
| 20260505223049 | -17 | 215 | 0.0 | 3.2 | 0.00 | 0.13 | 0.13 | 1005.0 | |
| 20260505222546 | -17 | 207 | 0.0 | 1.6 | 0.00 | 0.13 | 0.13 | 1005.2 | |
| 20260505222042 | -17 | 224 | 3.2 | 4.8 | 0.00 | 0.13 | 0.13 | 1005.2 | |
| 20260505221539 | -17 | 233 | 6.4 | 11.3 | 0.00 | 0.13 | 0.13 | 1005.2 | |
| 20260505221036 | -17 | 223 | 6.4 | 6.4 | 0.00 | 0.13 | 0.13 | 1005.1 | |
| 20260505220533 | -17 | 228 | 4.8 | 6.4 | 0.00 | 0.13 | 0.13 | 1004.8 | |
| 20260505220031 | -17 | 205 | 1.6 | 3.2 | 0.00 | 0.13 | 0.13 | 1004.5 | |
| 20260505215529 | -17 | 210 | 1.6 | 3.2 | 0.00 | 0.13 | 0.13 | 1004.5 | |
| 20260505215026 | -17 | 211 | 0.0 | 0.0 | 0.00 | 0.13 | 0.13 | 1004.3 | |
| 20260505214524 | -17 | 211 | 0.0 | 0.0 | 0.00 | 0.13 | 0.13 | 1004.2 | |
| 20260505214021 | -17 | 211 | 1.6 | 4.8 | 0.00 | 0.13 | 0.13 | 1004.3 | |
| 20260505213519 | -17 | 211 | 1.6 | 3.2 | 0.00 | 0.13 | 0.13 | 1004.2 | |
| 20260505213015 | -17 | 217 | 1.6 | 1.6 | 0.00 | 0.13 | 0.13 | 1004.2 | |
| 20260505212511 | -17 | 207 | 3.2 | 3.2 | 0.00 | 0.13 | 0.13 | 1004.5 | |
| 20260505212008 | -17 | 209 | 3.2 | 4.8 | 0.00 | 0.13 | 0.13 | 1004.3 | |
| 20260505211506 | -17 | 201 | 3.2 | 4.8 | 0.13 | 0.13 | 0.13 | 1004.5 | |
| 20260505211002 | -17 | 246 | 6.4 | 9.7 | 0.13 | 0.13 | 0.13 | 1004.8 | |
| 20260505210459 | -17 | 233 | 6.4 | 9.7 | 0.18 | 0.10 | 0.10 | 1004.9 | |
| 20260505205955 | -17 | 219 | 0.0 | 1.6 | 0.18 | 0.10 | 0.10 | 1004.7 | |
| 20260505205454 | -17 | 207 | 1.6 | 4.8 | 0.00 | 0.08 | 0.08 | 1004.7 | |
| 20260505204950 | -17 | 214 | 1.6 | 3.2 | 0.00 | 0.08 | 0.08 | 1004.5 | |
| 20260505204449 | -17 | 208 | 1.6 | 3.2 | 0.00 | 0.08 | 0.08 | 1004.2 | |
| 20260505203946 | -17 | 213 | 1.6 | 1.6 | 0.00 | 0.08 | 0.08 | 1004.2 | |
| 20260505203442 | -17 | 213 | 0.0 | 0.0 | 0.00 | 0.08 | 0.08 | 1004.2 | |
| 20260505202938 | -17 | 208 | 3.2 | 4.8 | 0.00 | 0.08 | 0.08 | 1004.2 | |
| 20260505202435 | -17 | 213 | 3.2 | 4.8 | 0.00 | 0.08 | 0.08 | 1004.1 | |
| 20260505201931 | -17 | 208 | 1.6 | 3.2 | 0.48 | 0.08 | 0.08 | 1004.2 | |
| 20260505201428 | -17 | 194 | 3.2 | 6.4 | 0.48 | 0.08 | 0.08 | 1004.2 | |
| 20260505200926 | -17 | 249 | 8.0 | 11.3 | 0.00 | 0.00 | 0.00 | 1004.6 | |
| 20260505200423 | -17 | 208 | 0.0 | 4.8 | 0.00 | 0.00 | 0.00 | 1004.1 | |
| 20260505195919 | -17 | 214 | 1.6 | 11.3 | 0.00 | 0.00 | 0.00 | 1003.9 | |
| 20260505195416 | -17 | 219 | 6.4 | 17.7 | 0.00 | 0.00 | 0.00 | 1003.8 | |
| 20260505194913 | -17 | 201 | 8.0 | 17.7 | 0.00 | 0.00 | 0.00 | 1003.7 | |
| 20260505194411 | -17 | 214 | 3.2 | 11.3 | 0.00 | 0.00 | 0.00 | 1003.7 | |
| 20260505193911 | -17 | 230 | 8.0 | 12.9 | 0.00 | 0.00 | 0.00 | 1003.8 | |
| 20260505193409 | -17 | 225 | 1.6 | 12.9 | 0.00 | 0.00 | 0.00 | 1003.7 | |
| 20260505192907 | -17 | 224 | 1.6 | 11.3 | 0.00 | 0.00 | 0.00 | 1003.7 | |
| 20260505192405 | -17 | 223 | 1.6 | 11.3 | 0.00 | 0.00 | 0.00 | 1003.4 | |
| 20260505191902 | -17 | 187 | 6.4 | 11.3 | 0.00 | 0.00 | 0.00 | 1003.6 | |
| 20260505191400 | -17 | 227 | 3.2 | 6.4 | 0.00 | 0.00 | 0.00 | 1003.6 | |
| 20260505190857 | -17 | 203 | 12.9 | 20.9 | 0.00 | 0.00 | 0.00 | 1003.7 | |
| 20260505190352 | -17 | 224 | 12.9 | 33.8 | 0.00 | 0.00 | 0.00 | 1003.8 | |
| 20260505185848 | -17 | 220 | 4.8 | 17.7 | 0.00 | 0.00 | 0.00 | 1003.8 | |
| 20260505185345 | -17 | 224 | 8.0 | 9.7 | 0.00 | 0.00 | 0.00 | 1004.1 | |
| 20260505184841 | -17 | 231 | 6.4 | 20.9 | 0.00 | 0.00 | 0.00 | 1004.0 | |
| 20260505184338 | -17 | 224 | 11.3 | 22.5 | 0.00 | 0.00 | 0.00 | 1004.2 | |
| 20260505183835 | -17 | 222 | 6.4 | 14.5 | 0.00 | 0.00 | 0.00 | 1004.3 | |
| 20260505183332 | -17 | 228 | 12.9 | 24.1 | 0.00 | 0.00 | 0.00 | 1004.1 | |
| 20260505182829 | -17 | 225 | 8.0 | 17.7 | 0.00 | 0.00 | 0.00 | 1004.5 | |
| 20260505182325 | -17 | 210 | 4.8 | 14.5 | 0.00 | 0.00 | 0.00 | 1004.5 | |
| 20260505181822 | -17 | 179 | 4.8 | 16.1 | 0.00 | 0.00 | 0.00 | 1004.5 | |
| 20260505181320 | -17 | 253 | 6.4 | 11.3 | 0.00 | 0.00 | 0.00 | 1004.6 | |
| 20260505180816 | -17 | 249 | 4.8 | 14.5 | 0.00 | 0.00 | 0.00 | 1004.8 | |
| 20260505180312 | -17 | 213 | 8.0 | 14.5 | 0.00 | 0.00 | 0.00 | 1004.8 | |
| 20260505175809 | -17 | 213 | 4.8 | 11.3 | 0.00 | 0.00 | 0.00 | 1004.9 | |
| 20260505175306 | -17 | 246 | 8.0 | 14.5 | 0.00 | 0.00 | 0.00 | 1005.1 | |
| 20260505174802 | -17 | 240 | 8.0 | 22.5 | 0.00 | 0.00 | 0.00 | 1005.1 | |
| 20260505174259 | -17 | 216 | 3.2 | 25.7 | 0.00 | 0.00 | 0.00 | 1005.1 | |
| 20260505173755 | -17 | 235 | 9.7 | 29.0 | 0.00 | 0.00 | 0.00 | 1005.2 | |
| 20260505173252 | -17 | 232 | 6.4 | 22.5 | 0.00 | 0.00 | 0.00 | 1005.2 | |
| 20260505172749 | -17 | 207 | 9.7 | 12.9 | 0.00 | 0.00 | 0.00 | 1005.1 | |
| 20260505172246 | -17 | 237 | 11.3 | 33.8 | 0.00 | 0.00 | 0.00 | 1004.9 | |
| 20260505171746 | -17 | 211 | 8.0 | 11.3 | 0.00 | 0.00 | 0.00 | 1004.9 | |
| 20260505171243 | -17 | 235 | 3.2 | 22.5 | 0.00 | 0.00 | 0.00 | 1004.7 | |
| 20260505170740 | -17 | 233 | 16.1 | 22.5 | 0.00 | 0.00 | 0.00 | 1004.7 | |
| 20260505170237 | -17 | 212 | 17.7 | 22.5 | 0.00 | 0.00 | 0.00 | 1004.9 | |
| 20260505165732 | -17 | 222 | 6.4 | 20.9 | 0.00 | 0.00 | 0.00 | 1004.9 | |
| 20260505165228 | -17 | 255 | 11.3 | 14.5 | 0.00 | 0.00 | 0.00 | 1005.0 | |
| 20260505164724 | -17 | 216 | 6.4 | 29.0 | 0.00 | 0.00 | 0.00 | 1004.8 | |
| 20260505164221 | -17 | 216 | 9.7 | 14.5 | 0.00 | 0.00 | 0.00 | 1005.2 | |
| 20260505163719 | -17 | 220 | 4.8 | 22.5 | 0.00 | 0.00 | 0.00 | 1005.1 | |
| 20260505163218 | -17 | 219 | 4.8 | 25.7 | 0.00 | 0.00 | 0.00 | 1005.4 | |
| 20260505162714 | -17 | 264 | 9.7 | 24.1 | 0.00 | 0.00 | 0.00 | 1005.6 | |
| 20260505162212 | -17 | 229 | 14.5 | 22.5 | 0.00 | 0.00 | 0.00 | 1005.5 | |
| 20260505161708 | -17 | 223 | 9.7 | 16.1 | 0.00 | 0.00 | 0.00 | 1005.4 | |
| 20260505161206 | -17 | 231 | 4.8 | 14.5 | 0.00 | 0.00 | 0.00 | 1005.6 | |
| 20260505160703 | -17 | 279 | 11.3 | 24.1 | 0.00 | 0.00 | 0.00 | 1005.6 | |
| 20260505160201 | -17 | 169 | 12.9 | 16.1 | 0.00 | 0.00 | 0.00 | 1005.6 | |
| 20260505153140 | -17 | 273 | 14.5 | 20.9 | 0.00 | 0.00 | 0.00 | 1005.8 | |
| 20260505152637 | -17 | 218 | 9.7 | 16.1 | 0.00 | 0.00 | 0.00 | 1006.0 | |
| 20260505152132 | -17 | 212 | 3.2 | 20.9 | 0.00 | 0.00 | 0.00 | 1006.1 | |
| 20260505151628 | -17 | 238 | 9.7 | 24.1 | 0.00 | 0.00 | 0.00 | 1006.0 |